Location: Gad�tanya
(48.0500°N, 20.8500°E)
Time: 11:23:26
(UTC+00:00)

SAR-Lupe-2 - Pass Details

Date: 05 July 2020
Orbit: 482 x 484 km, 98.1° (Epoch: 09 August)

Event Time Altitude Azimuth Distance (km) Brightness Sun altitude
Rises 20:03:56 0° 13° (NNE) 2,561 7.9 -11.0°
Reaches altitude 10° 20:06:01 10° 13° (NNE) 1,675 6.9 -11.2°
Maximum altitude 20:09:37 87° 286° (WNW) 491 3.5 -11.5°
Drops below altitude 10° 20:13:11 10° 196° (SSW) 1,659 5.9 -11.9°
Enters shadow 20:13:39 - 196° (SSW) 1,857 6.1 -11.9°
